Regional Weather Roundup
Issued by NWS Upton, NY

Current Version | Previous Version | Graphics & Text | Print | Product List | Glossary Off
Versions: 1 2 3 4 5 6 7 8 9 10 11 12 13 14 15 16 17 18 19 20 21 22 23 24 25 26 27 28 29 30 31 32 33 34 35 36 37 38 39 40 41 42 43 44 45 46 47 48 49 50

000
ASUS41 KOKX 290408
RWROKX

REGIONAL WEATHER ROUNDUP
NATIONAL WEATHER SERVICE NEW YORK NY
1200 AM EDT FRI MAY 29 2015

NOTE: "FAIR" INDICATES FEW OR NO CLOUDS BELOW 12,000 FEET WITH NO
SIGNIFICANT WEATHER AND/OR OBSTRUCTIONS TO VISIBILITY.

NYZ071-072-176-178-NJZ106-104-290500-
NEW YORK CITY METRO AREA


CITY           SKY/WX    TMP DP  RH WIND       PRES   REMARKS
CENTRAL PARK   PTCLDY    74  55  51 NE10G16   30.27R
LAGUARDIA APRT PTCLDY    70  56  61 NE8       30.23R
KENNEDY INTL   MOCLDY    73  56  54 N15       30.24R
NEWARK/LIBERTY MOCLDY    74  54  49 N14       30.23R
BRNX BOT. GARD   N/A     70  55  60 NE9       30.25S
TETERBORO      PTCLDY    72  53  51 N6        30.23R
$$

NYZ177-179-078>081-290500-
LONG ISLAND NEW YORK

CITY           SKY/WX    TMP DP  RH WIND       PRES   REMARKS
FARMINGDALE    PTCLDY    68  58  70 N14       30.24R
ISLIP          MOCLDY    68  58  70 N13       30.22R
SHIRLEY        MOCLDY    64  61  90 N7        30.24R
WESTHAMPTON    MOCLDY    60  59  96 CALM      30.24R FOG
MONTAUK POINT    N/A     62  60  93 S3        30.24R
$$

NYZ052-065-067-290500-
HUDSON VALLEY

CITY           SKY/WX    TMP DP  RH WIND       PRES   REMARKS
WHITE PLAINS   PTCLDY    67  54  63 N8        30.25R
NEWBURGH       CLEAR     64  57  77 VRB6      30.27S
MONTGOMERY     CLEAR     59  55  87 CALM      30.26R
POUGHKEEPSIE   CLEAR     63  54  72 CALM      30.25S
ALBANY         PTCLDY    62  53  72 NW3       30.28R
$$

NJZ001-105-106-008-010-013-015-019>022-104-290500-
NEW JERSEY

CITY           SKY/WX    TMP DP  RH WIND       PRES   REMARKS
NEWARK/LIBERTY MOCLDY    74  54  49 N14       30.23R
TETERBORO      PTCLDY    72  53  51 N6        30.23R
CALDWELL       PTCLDY    70  53  54 NE5       30.25R
MORRISTOWN     PTCLDY    70  54  56 NE3       30.25R
SOMERVILLE     PTCLDY    65  54  67 CALM      30.22R
SUSSEX         CLEAR     60  53  77 CALM      30.28S
ANDOVER          N/A     61  56  83 CALM      30.27R
TRENTON        PTCLDY    72  53  51 N5        30.23R
MILLVILLE      MOCLDY    68  66  93 CALM      30.21S
ATLANTIC CITY  CLOUDY    69  64  84 S3        30.21S
WRIGHTSTOWN    PTCLDY    69  57  67 N6        30.20S
TOMS RIVER     MOCLDY   N/A N/A N/A CALM      30.23R
BELMAR         MOCLDY    70  59  68 N3        30.23R
$$

PAZ047>061-062-071-290500-
EASTERN PENNSYLVANIA

CITY           SKY/WX    TMP DP  RH WIND       PRES   REMARKS
PHILADELPHIA   PTCLDY    76  53  44 NE9       30.23R
ALLENTOWN      CLEAR     68  52  56 N7        30.26R
SCRANTON       CLEAR     63  53  70 E6        30.29R
$$

CTZ002-004>006-009-010-012-RIZ004-006-007-MAZ004-011-015-290500-
SOUTHERN NEW ENGLAND
 IN CT

CITY           SKY/WX    TMP DP  RH WIND       PRES   REMARKS
BRADLEY INTL   PTCLDY    64  54  69 CALM      30.24R
HARTFORD       FAIR      68  53  58 VRB6      30.24R
DANBURY        CLEAR     64  52  64 NW3       30.27R
WTRBRY/OXFORD  CLEAR     61  50  67 N8        30.28R
BRIDGEPORT     PTCLDY    69  56  62 N8        30.24R
MERIDEN        PTCLDY    68  53  58 N5        30.24S
NEW HAVEN      PTCLDY    69  54  58 N8        30.23R
CHESTER        FAIR      66  55  68 N6        30.24S
GROTON         MOCLDY    62  59  90 CALM      30.22R
WILLIMANTIC    PTCLDY    65  55  70 CALM      30.24R

 IN RI

CITY           SKY/WX    TMP DP  RH WIND       PRES   REMARKS
PROVIDENCE     MOCLDY    65  61  87 CALM      30.22R
BLOCK ISLAND   MOCLDY    59  55  88 SW9       30.23R
WESTERLY       MOCLDY    60  57  89 CALM      30.23R

 IN MA

CITY           SKY/WX    TMP DP  RH WIND       PRES   REMARKS
BOSTON         PTCLDY    70  55  59 NW12      30.21R
WORCESTER      CLEAR     61  53  75 W6        30.25R
WESTFIELD      CLEAR     59  53  80 CALM      30.24R
PROVINCETOWN   MOCLDY    61  57  88 W8        30.20S
NANTUCKET      CLOUDY    60  57  89 SW9       30.23F
$$

ANZ330-335-338-340-345-350-353-355-290500-
COASTAL MARINE OBSERVATIONS


STATION/POSITION TIME  SKY/WX   TEMP    WIND        PRES    VSBY  WAVE
                                AIR SEA DIR/SP/G                  HT/PER
                 (UTC)          (F)     (DEG/KT/KT) (MB)    (MI)  (FT/S)
NY HARB ENTRANCE 0350            62 57  280/  4/  6 1023.3          3/ 6
4S FIRE IS       0303               58                N/A           4/ 5
20S FIRE ISLAND  0350            61 57  230/  8/ 12 1023.2          3/ 5
GREAT SOUTH BAY  0300            66 68  310/  6/ 10   N/A
23SW MTP         0350            58 54  190/  6/  8 1023.7          4/ 6
HUDSON CANYON    NOT AVBL
KINGS POINT      0300            71 56   50/  4/  7 1022.8
CENTRAL LI SOUND 0300            65 60  300/  2/  4   N/A
EASTERN LI SOUND 0300            56     210/  4/  6   N/A
ROBBINS REEF     0300            76     350/ 14/ 19 1022.1
$$


>>>>>>>>>>>>>>>>>>>>>>>>>>>> KEY <<<<<<<<<<<<<<<<<<<<<<<<<<<
>                                                          <
>     SKY/WX - SKY CONDITION/PRESENT WEATHER               <
>     TMP    - TEMPERATURE IN FAHRENHEIT                   <
>     DP     - DEWPOINT IN FAHRENHEIT                      <
>     RH     - RELATIVE HUMIDITY IN PERCENT                <
>     WIND   - DIRECTION AND SPEED IN MPH                  <
>     PRES   - MEAN SEA LEVEL PRESSURE IN INCHES OF HG     <
>     WCI    - WIND CHILL INDEX                            <
>     VSB    - VISIBILITY IN MILES                         <
>     HX     - HEAT INDEX                                  <
>     TC     - TEMPERATURE IN CELSIUS                      <
>     VRB    - VARIABLE WIND DIRECTION                     <
>                                                          <
>>>>>>>>>>>>>>>>>>>>>>>>>>>> KEY <<<<<<<<<<<<<<<<<<<<<<<<<<<




USA.gov is the U.S. government's official web portal to all federal, state and local government web resources and services.